Terminal Aerodrome Forecast
Issued by NWS

Home | Current Version | Previous Version | Text Only | Print | Product List | Glossary On
Versions: 1 2 3 4 5 6 7 8 9 10 11 12
892
FTUS45 KREV 271125
TAFMMH
TAF
KMMH 271125Z 2712/2812 VRB03KT P6SM SKC
     FM271600 13006KT P6SM SKC
     FM272200 28010G18KT P6SM FEW100
     FM280400 VRB04KT P6SM FEW100=

USA.gov is the U.S. government's official web portal to all federal, state and local government web resources and services.